This demonstration page uses our WeatherBlox Daily Observations layout. Learn more.

Left ArrowRight Arrow

39.51506, -84.39828

Hourly Observations for July 2, 2015

Temp ( °F °C ) Dew Point ( °F °C ) Humidity (%) Winds ( mph kmh ) Pressure ( in mb ) Visibility ( mi km ) Precip ( " mm )
2:55 pm 14:55 Mostly Cloudy 77 25.1 65 18.6 67 67 ENE 9 15 29.88 1012 10 16 N/A
3:15 pm 15:15 Cloudy 77 25.1 66 18.7 68 68 ENE 8 13 29.88 1012 10 16 N/A
3:35 pm 15:35 Cloudy 77 25.1 66 18.9 69 69 ENE 9 15 29.88 1012 10 16 N/A
3:55 pm 15:55 Mostly Cloudy 77 25.1 66 18.8 68 68 NE 8 13 29.88 1012 10 16 N/A
4:15 pm 16:15 Cloudy 77 25.1 67 19.2 70 70 ENE 10 17 29.88 1012 10 16 N/A
4:35 pm 16:35 Mostly Cloudy 79 26.3 68 19.8 68 68 ENE 10 17 29.88 1012 10 16 N/A
4:55 pm 16:55 Mostly Cloudy 78 25.4 66 18.9 67 67 ENE 9 15 29.88 1012 10 16 N/A
5:15 pm 17:15 Mostly Cloudy 77 25.1 66 18.8 68 68 NE 10 17 29.88 1012 10 16 N/A
5:35 pm 17:35 Cloudy 77 25.1 66 19 69 69 ENE 7 11 29.88 1012 10 16 N/A
5:55 pm 17:55 Mostly Cloudy 77 25.1 66 18.8 68 68 ENE 8 13 29.88 1012 10 16 N/A
6:15 pm 18:15 Mostly Cloudy 77 25.1 65 18.6 67 67 ENE 12 19 29.88 1012 10 16 N/A
6:35 pm 18:35 Mostly Cloudy 77 25.1 65 18.2 66 66 ENE 10 17 29.88 1012 10 16 N/A
6:55 pm 18:55 Partly Cloudy 77 25.1 65 18.5 67 67 NE 10 17 29.88 1012 10 16 N/A
7:15 pm 19:15 Sunny 77 25.1 65 18.6 67 67 ENE 7 11 29.88 1012 10 16 N/A
7:35 pm 19:35 Mostly Cloudy 75 24.1 64 17.8 68 68 ENE 8 13 29.88 1012 10 16 N/A
7:55 pm 19:55 Cloudy N/A N/A N/A ENE 9 15 N/A N/A N/A
8:15 pm 20:15 Cloudy 74 23.6 63 17.3 68 68 NE 6 9 29.88 1012 10 16 N/A
8:35 pm 20:35 Cloudy 74 23.6 64 17.5 69 69 ENE 8 13 29.88 1012 10 16 N/A
8:55 pm 20:55 Cloudy 74 23.6 63 17.4 68 68 ENE 9 15 29.88 1012 10 16 N/A
9:15 pm 21:15 Cloudy 74 23.6 64 17.6 69 69 ENE 10 17 29.88 1012 10 16 N/A
9:35 pm 21:35 Cloudy N/A N/A N/A ENE 7 11 N/A 10 16 N/A
9:55 pm 21:55 Mostly Cloudy 74 23.6 65 18.1 71 71 ENE 7 11 29.88 1012 10 16 N/A
10:15 pm 22:15 Cloudy 74 23.6 65 18.2 72 72 E 7 11 29.91 1013 10 16 N/A
10:35 pm 22:35 Cloudy 74 23.6 64 17.8 70 70 ENE 8 13 29.91 1013 10 16 N/A
10:55 pm 22:55 Cloudy 74 23.6 64 17.5 69 69 ENE 7 11 29.91 1013 10 16 N/A
11:15 pm 23:15 Cloudy 74 23.6 63 17.4 68 68 ENE 7 11 29.91 1013 10 16 N/A
11:35 pm 23:35 Cloudy 72 22.3 62 16.7 71 71 ENE 6 9 29.91 1013 10 16 N/A
11:55 pm 23:55 Cloudy 72 22.3 62 16.5 70 70 ENE 7 11 29.91 1013 10 16 N/A

Powered by AerisWeather